VK6MTG Weather Reports


time (UTC)temp
C
wind
direction
speed
KPH
gust
KPH
rain 1hr
cm
rain 24hr
cm
rain mn
cm
humidity
%
barometer
mb
20260506165508 16 98 6.4 9.7 0.00 0.00 0.00 45 1218.5
20260506165008 16 79 6.4 9.7 0.00 0.00 0.00 45 1218.5
20260506164317 16 68 9.7 9.7 0.00 0.00 0.00 45 1219.5
20260506163816 16 45 4.8 9.7 0.00 0.00 0.00 45 1219.5
20260506163316 17 98 4.8 9.7 0.00 0.00 0.00 45 1219.5
20260506162816 17 98 3.2 6.4 0.00 0.00 0.00 44 1218.5
20260506162125 17 56 4.8 9.7 0.00 0.00 0.00 44 1218.5
20260506161625 17 105 8.0 9.7 0.00 0.00 0.00 44 1218.5
20260506161125 17 82 4.8 9.7 0.00 0.00 0.00 44 1219.5
20260506160625 17 75 6.4 9.7 0.00 0.00 0.00 44 1219.5
20260506160125 17 45 4.8 6.4 0.00 0.00 0.00 44 1219.5
20260506155625 17 82 3.2 8.0 0.00 0.00 0.00 44 1218.5
20260506154934 17 112 6.4 9.7 0.00 0.00 0.00 44 1218.5
20260506154434 17 82 9.7 9.7 0.00 0.00 0.00 44 1218.5
20260506153934 17 90 3.2 12.9 0.00 0.00 0.00 44 1218.5
20260506153242 17 45 6.4 9.7 0.00 0.00 0.00 44 1218.5
20260506152742 17 60 4.8 14.5 0.00 0.00 0.00 44 1219.5
20260506152242 17 112 8.0 14.5 0.00 0.00 0.00 44 1219.5
20260506151742 17 45 6.4 8.0 0.00 0.00 0.00 44 1219.5
20260506151242 17 68 6.4 8.0 0.00 0.00 0.00 44 1219.5
20260506150551 17 112 3.2 8.0 0.00 0.00 0.00 44 1219.5
20260506150051 17 112 8.0 9.7 0.00 0.00 0.00 44 1219.5
20260506145551 17 96 4.8 9.7 0.00 0.00 0.00 44 1219.5
20260506144900 17 79 6.4 8.0 0.00 0.00 0.00 44 1219.5
20260506144400 17 90 4.8 9.7 0.00 0.00 0.00 44 1219.5
20260506143900 17 68 4.8 9.7 0.00 0.00 0.00 44 1219.5
20260506143400 17 112 4.8 6.4 0.00 0.00 0.00 44 1219.5
20260506142900 17 82 1.6 6.4 0.00 0.00 0.00 44 1219.5
20260506142400 17 112 4.8 6.4 0.00 0.00 0.00 44 1219.5
20260506141900 17 105 4.8 6.4 0.00 0.00 0.00 44 1219.5
20260506141400 17 135 3.2 6.4 0.00 0.00 0.00 44 1219.5
20260506140900 17 112 6.4 6.4 0.00 0.00 0.00 44 1217.5
20260506140209 17 90 4.8 11.3 0.00 0.00 0.00 44 1217.5
20260506135708 17 128 9.7 11.3 0.00 0.00 0.00 43 1217.5
20260506135017 18 68 1.6 4.8 0.00 0.00 0.00 43 1217.5
20260506134517 18 68 1.6 4.8 0.00 0.00 0.00 43 1217.5
20260506134017 18 112 4.8 4.8 0.00 0.00 0.00 43 1220.5
20260506133517 18 112 0.0 4.8 0.00 0.00 0.00 43 1220.5
20260506133017 18 112 3.2 4.8 0.00 0.00 0.00 43 1220.5
20260506132517 18 68 1.6 4.8 0.00 0.00 0.00 43 1220.5
20260506131826 18 128 3.2 4.8 0.00 0.00 0.00 43 1220.5
20260506131326 18 112 4.8 4.8 0.00 0.00 0.00 43 1220.5
20260506130826 18 68 4.8 4.8 0.00 0.00 0.00 43 1219.5
20260506130134 18 112 1.6 6.4 0.00 0.00 0.00 43 1219.5
20260506125634 18 120 4.8 6.4 0.00 0.00 0.00 43 1217.5
20260506125135 18 120 3.2 4.8 0.00 0.00 0.00 42 1217.5
20260506124635 18 112 4.8 4.8 0.00 0.00 0.00 42 1217.5
20260506124135 18 158 1.6 6.4 0.00 0.00 0.00 42 1217.5
20260506123635 18 112 3.2 8.0 0.00 0.00 0.00 42 1217.5
20260506123135 19 150 4.8 8.0 0.00 0.00 0.00 42 1217.5
20260506122443 19 148 1.6 4.8 0.00 0.00 0.00 42 1220.5
20260506121943 19 135 1.6 3.2 0.00 0.00 0.00 42 1220.5
20260506121443 19 188 1.6 4.8 0.00 0.00 0.00 42 1220.5
20260506120943 19 124 1.6 4.8 0.00 0.00 0.00 42 1219.5
20260506120443 19 112 0.0 4.8 0.00 0.00 0.00 42 1219.5
20260506115943 19 128 1.6 4.8 0.00 0.00 0.00 42 1219.5
20260506115252 19 94 1.6 4.8 0.00 0.00 0.00 41 1219.5
20260506114752 19 128 0.0 4.8 0.00 0.00 0.00 41 1219.5
20260506114252 19 82 3.2 4.8 0.00 0.00 0.00 41 1220.5
20260506113601 20 112 1.6 4.8 0.00 0.00 0.00 40 1220.5
20260506113100 20 98 3.2 4.8 0.00 0.00 0.00 40 1220.5
20260506112600 20 107 1.6 4.8 0.00 0.00 0.00 39 1221.5
20260506112100 20 90 3.2 6.4 0.00 0.00 0.00 39 1221.5
20260506111600 20 158 4.8 6.4 0.00 0.00 0.00 39 1221.5
20260506111101 20 158 0.0 3.2 0.00 0.00 0.00 39 1222.6
20260506110409 20 188 0.0 3.2 0.00 0.00 0.00 38 1222.6
20260506105909 20 112 1.6 4.8 0.00 0.00 0.00 37 1222.6
20260506105409 20 98 1.6 4.8 0.00 0.00 0.00 37 1221.5
20260506104909 20 82 1.6 3.2 0.00 0.00 0.00 37 1221.5
20260506104409 20 142 1.6 3.2 0.00 0.00 0.00 36 1221.5
20260506103909 20 101 1.6 3.2 0.00 0.00 0.00 36 1221.5
20260506103218 21 105 1.6 6.4 0.00 0.00 0.00 36 1221.5
20260506102718 21 90 0.0 6.4 0.00 0.00 0.00 35 1220.5
20260506102026 21 105 1.6 4.8 0.00 0.00 0.00 35 1220.5
20260506101527 21 112 1.6 4.8 0.00 0.00 0.00 35 1220.5
20260506101026 21 90 1.6 6.4 0.00 0.00 0.00 35 1221.5
20260506100526 21 105 3.2 6.4 0.00 0.00 0.00 34 1221.5
20260506100026 21 128 4.8 6.4 0.00 0.00 0.00 34 1221.5
20260506095526 21 112 3.2 4.8 0.00 0.00 0.00 34 1222.6
20260506094835 21 112 1.6 6.4 0.00 0.00 0.00 34 1222.6
20260506094335 21 112 4.8 4.8 0.00 0.00 0.00 34 1222.6
20260506093835 22 82 3.2 6.4 0.00 0.00 0.00 34 1221.5
20260506093335 22 90 6.4 6.4 0.00 0.00 0.00 33 1221.5
20260506092835 22 112 3.2 4.8 0.00 0.00 0.00 33 1221.5
20260506092335 22 105 3.2 6.4 0.00 0.00 0.00 33 1221.5
20260506091835 22 68 3.2 8.0 0.00 0.00 0.00 33 1221.5
20260506091335 22 112 4.8 8.0 0.00 0.00 0.00 32 1221.5
20260506090835 22 90 3.2 9.7 0.00 0.00 0.00 32 1221.5
20260506090143 22 105 6.4 9.7 0.00 0.00 0.00 32 1221.5
20260506085644 22 158 1.6 8.0 0.00 0.00 0.00 32 1221.5
20260506084952 23 90 8.0 8.0 0.00 0.00 0.00 31 1221.5
20260506084452 23 98 4.8 9.7 0.00 0.00 0.00 31 1221.5
20260506083952 23 105 4.8 12.9 0.00 0.00 0.00 31 1221.5
20260506083452 23 112 12.9 12.9 0.00 0.00 0.00 31 1221.5
20260506082801 23 22 4.8 12.9 0.00 0.00 0.00 31 1222.6
20260506082304 23 112 6.4 12.9 0.00 0.00 0.00 30 1222.6
20260506081801 23 105 4.8 8.0 0.00 0.00 0.00 30 1222.6
20260506081301 23 84 4.8 6.4 0.00 0.00 0.00 28 1223.6
20260506080801 24 101 6.4 8.0 0.00 0.00 0.00 27 1223.6
20260506080301 24 105 6.4 9.7 0.00 0.00 0.00 26 1223.6
20260506073418 26 158 9.7 12.9 0.00 0.00 0.00 21 1222.6
20260506072918 26 105 9.7 12.9 0.00 0.00 0.00 18 1222.6
20260506072418 27 112 6.4 16.1 0.00 0.00 0.00 12 1222.6
20260506071919 27 60 8.0 16.1 0.00 0.00 0.00 8 1222.6
20260506071227 28 60 6.4 11.3 0.00 0.00 0.00 6 1222.6
20260506070727 29 112 4.8 11.3 0.00 0.00 0.00 8 1222.6
20260506070227 28 52 6.4 11.3 0.00 0.00 0.00 7 1222.6
20260506062036 34 52 9.7 11.3 0.00 0.00 0.00 2 1220.5
20260506061345 40 68 8.0 9.7 0.00 0.00 0.00 2 1220.5
20260506060845 38 112 8.0 12.9 0.00 0.00 0.00 2 1220.5
20260506060344 37 68 6.4 12.9 0.00 0.00 0.00 2 1220.5
20260506051002 24 68 11.3 14.5 0.00 0.00 0.00 33 1217.5
20260506050502 24 22 3.2 14.5 0.00 0.00 0.00 33 1217.5
20260506044810 23 34 8.0 8.0 0.00 0.00 0.00 35 1215.5
20260506044310 23 101 8.0 9.7 0.00 0.00 0.00 36 1215.5
20260506043810 23 56 6.4 11.3 0.00 0.00 0.00 35 1214.5
20260506043310 23 30 8.0 14.5 0.00 0.00 0.00 36 1214.5
20260506042619 23 120 6.4 14.5 0.00 0.00 0.00 37 1214.5
20260506042119 23 82 9.7 14.5 0.00 0.00 0.00 37 1214.5
20260506041619 22 90 6.4 11.3 0.00 0.00 0.00 38 1214.5
20260506041119 22 34 8.0 19.3 0.00 0.00 0.00 38 1212.5
20260506040619 22 52 9.7 19.3 0.00 0.00 0.00 39 1212.5
20260506040119 22 22 11.3 14.5 0.00 0.00 0.00 40 1212.5
20260506035619 22 90 6.4 12.9 0.00 0.00 0.00 40 1209.4
20260506035119 22 75 9.7 12.9 0.00 0.00 0.00 41 1209.4
20260506034428 22 62 11.3 16.1 0.00 0.00 0.00 41 1209.4
20260506033928 22 60 9.7 16.1 0.00 0.00 0.00 42 1208.4
20260506033428 21 34 4.8 16.1 0.00 0.00 0.00 43 1208.4
20260506032928 21 68 9.7 16.1 0.00 0.00 0.00 43 1208.4
20260506032237 21 45 11.3 17.7 0.00 0.00 0.00 44 1204.4
20260506031737 21 90 17.7 17.7 0.00 0.00 0.00 45 1204.4
20260506031237 21 30 8.0 12.9 0.00 0.00 0.00 45 1201.4
20260506030737 21 82 9.7 12.9 0.00 0.00 0.00 46 1201.4
20260506030045 21 107 4.8 9.7 0.00 0.00 0.00 49 1201.4
20260506025545 20 98 4.8 12.9 0.00 0.00 0.00 50 1199.3
20260506025045 20 68 9.7 12.9 0.00 0.00 0.00 50 1199.3
20260506024545 20 56 8.0 12.9 0.00 0.00 0.00 50 1199.3
20260506024045 20 79 11.3 14.5 0.00 0.00 0.00 51 1197.3
20260506023354 20 90 8.0 14.5 0.00 0.00 0.00 53 1197.3
20260506022854 19 52 6.4 14.5 0.00 0.00 0.00 53 1197.3
20260506022354 19 60 6.4 17.7 0.00 0.00 0.00 54 1192.3
20260506021854 19 68 6.4 17.7 0.00 0.00 0.00 55 1192.3
20260506021354 18 90 9.7 14.5 0.00 0.00 0.00 56 1192.3
20260506020854 18 90 9.7 14.5 0.00 0.00 0.00 57 1193.3
20260506020203 18 75 9.7 14.5 0.00 0.00 0.00 58 1193.3
20260506015703 18 112 4.8 14.5 0.00 0.00 0.00 58 1193.3
20260506015203 18 98 8.0 14.5 0.00 0.00 0.00 59 1193.3
20260506014703 18 60 8.0 14.5 0.00 0.00 0.00 59 1193.3
20260506014203 17 45 12.9 14.5 0.00 0.00 0.00 60 1191.3
20260506013703 17 90 8.0 12.9 0.00 0.00 0.00 61 1191.3
20260506013012 17 90 8.0 16.1 0.00 0.00 0.00 62 1191.3
20260506012321 17 68 16.1 16.1 0.00 0.00 0.00 63 1190.2
20260506011820 17 68 9.7 14.5 0.00 0.00 0.00 63 1190.2
20260506011320 17 76 12.9 14.5 0.00 0.00 0.00 64 1190.2
20260506010820 17 68 12.9 14.5 0.00 0.00 0.00 64 1190.2
20260506010321 17 82 6.4 9.7 0.00 0.00 0.00 65 1190.2
20260506005821 17 79 6.4 16.1 0.00 0.00 0.00 65 1190.2
20260506005320 17 90 16.1 16.1 0.00 0.00 0.00 66 1189.2
20260506004821 16 68 4.8 11.3 0.00 0.00 0.00 66 1189.2
20260506004129 16 79 9.7 11.3 0.00 0.00 0.00 67 1189.2
20260506003629 16 90 3.2 9.7 0.00 0.00 0.00 67 1189.2
20260506003129 16 112 8.0 9.7 0.00 0.00 0.00 67 1189.2
20260506002629 16 90 1.6 6.4 0.00 0.00 0.00 67 1186.2
20260506002129 16 79 6.4 6.4 0.00 0.00 0.00 67 1186.2
20260506001438 16 90 6.4 6.4 0.00 0.00 0.00 67 1186.2
20260506000938 15 90 6.4 6.4 0.00 0.00 0.00 67 1189.2
20260506000438 15 68 6.4 9.7 0.00 0.00 0.00 67 1189.2
20260505235938 15 101 8.0 9.7 0.00 0.00 0.00 67 1189.2
20260505235246 15 0.0 0.0 0.00 0.00 0.00 67 1186.2
20260505234747 15 0.0 0.0 0.00 0.00 0.00 67 1186.2
20260505234247 15 0.0 0.0 0.00 0.00 0.00 67 1188.2
20260505233747 15 0.0 0.0 0.00 0.00 0.00 67 1188.2
20260505233246 15 0.0 0.0 0.00 0.00 0.00 67 1188.2
20260505232747 15 0.0 0.0 0.00 0.00 0.00 67 1191.3
20260505232055 15 0.0 0.0 0.00 0.00 0.00 67 1191.3
20260505231555 15 0.0 0.0 0.00 0.00 0.00 66 1191.3
20260505231055 15 0.0 0.0 0.00 0.00 0.00 66 1193.3
20260505230555 15 0.0 0.0 0.00 0.00 0.00 66 1193.3
20260505230055 15 0.0 0.0 0.00 0.00 0.00 66 1193.3
20260505225555 15 0.0 0.0 0.00 0.00 0.00 66 1197.3
20260505224904 15 0.0 0.0 0.00 0.00 0.00 66 1197.3
20260505224404 15 0.0 0.0 0.00 0.00 0.00 66 1197.3
20260505223903 15 0.0 0.0 0.00 0.00 0.00 65 1196.3
20260505223404 15 0.0 0.0 0.00 0.00 0.00 65 1196.3
20260505222712 15 0.0 0.0 0.00 0.00 0.00 65 1197.3
20260505222213 15 0.0 0.0 0.00 0.00 0.00 65 1197.3
20260505221712 15 0.0 0.0 0.00 0.00 0.00 65 1197.3
20260505221212 15 0.0 0.0 0.00 0.00 0.00 65 1196.3
20260505220712 15 0 0.0 6.4 0.00 0.00 0.00 65 1196.3
20260505220021 15 112 6.4 6.4 0.00 0.00 0.00 64 1196.3
20260505215521 15 112 6.4 6.4 0.00 0.00 0.00 64 1195.3
20260505215021 15 112 4.8 6.4 0.00 0.00 0.00 64 1195.3
20260505214521 15 112 4.8 6.4 0.00 0.00 0.00 64 1195.3
20260505214021 15 112 6.4 6.4 0.00 0.00 0.00 63 1200.3
20260505213521 15 135 4.8 6.4 0.00 0.00 0.00 63 1200.3
20260505212830 15 124 4.8 6.4 0.00 0.00 0.00 63 1200.3
20260505212330 15 112 4.8 4.8 0.00 0.00 0.00 62 1201.4
20260505211830 15 112 4.8 6.4 0.00 0.00 0.00 62 1201.4
20260505211138 15 112 4.8 9.7 0.00 0.00 0.00 62 1201.4
20260505210639 15 90 9.7 9.7 0.00 0.00 0.00 62 1201.4
20260505210139 15 90 9.7 9.7 0.00 0.00 0.00 61 1201.4
20260505205638 15 90 9.7 9.7 0.00 0.00 0.00 61 1201.4
20260505205139 15 90 4.8 4.8 0.00 0.00 0.00 61 1201.4
20260505204638 15 101 4.8 4.8 0.00 0.00 0.00 61 1201.4
20260505203947 15 112 4.8 4.8 0.00 0.00 0.00 60 1202.4
20260505203448 15 0.0 0.0 0.00 0.00 0.00 60 1202.4
20260505202947 15 0.0 0.0 0.00 0.00 0.00 60 1202.4
20260505202447 15 0.0 0.0 0.00 0.00 0.00 60 1201.4
20260505201756 15 0.0 0.0 0.00 0.00 0.00 59 1201.4
20260505201256 15 0.0 0.0 0.00 0.00 0.00 59 1202.4
20260505200756 15 0.0 0.0 0.00 0.00 0.00 59 1202.4
20260505200256 15 0.0 0.0 0.00 0.00 0.00 59 1202.4
20260505195756 15 0.0 0.0 0.00 0.00 0.00 58 1204.4
20260505195256 15 0.0 0.0 0.00 0.00 0.00 58 1204.4
20260505194604 15 0.0 0.0 0.00 0.00 0.00 58 1204.4
20260505194105 15 0.0 0.0 0.00 0.00 0.00 58 1204.4
20260505193605 15 0.0 0.0 0.00 0.00 0.00 58 1204.4
20260505193104 15 0.0 0.0 0.00 0.00 0.00 58 1204.4
20260505192604 16 0.0 0.0 0.00 0.00 0.00 58 1205.4
20260505192104 16 0.0 0.0 0.00 0.00 0.00 57 1205.4
20260505191604 16 0.0 0.0 0.00 0.00 0.00 57 1205.4
20260505190913 16 0.0 0.0 0.00 0.00 0.00 57 1206.4
20260505190413 16 0.0 0.0 0.00 0.00 0.00 57 1206.4
20260505185913 16 0.0 0.0 0.00 0.00 0.00 57 1206.4
20260505185413 16 0.0 0.0 0.00 0.00 0.00 56 1207.4
20260505184913 16 180 3.2 3.2 0.00 0.00 0.00 56 1207.4
20260505184222 16 180 3.2 3.2 0.00 0.00 0.00 56 1206.4
20260505183722 16 180 3.2 6.4 0.00 0.00 0.00 56 1206.4
20260505183030 16 135 6.4 6.4 0.00 0.00 0.00 55 1206.4
20260505182530 16 135 6.4 6.4 0.00 0.00 0.00 55 1207.4
20260505182031 16 135 6.4 6.4 0.00 0.00 0.00 55 1207.4
20260505181530 16 0.0 0.0 0.00 0.00 0.00 55 1207.4
20260505181030 16 112 6.4 6.4 0.00 0.00 0.00 55 1208.4
20260505180530 16 112 6.4 6.4 0.00 0.00 0.00 55 1208.4
20260505175839 16 128 6.4 6.4 0.00 0.00 0.00 54 1208.4
20260505175339 16 112 1.6 1.6 0.00 0.00 0.00 54 1208.4
20260505174839 16 112 1.6 8.0 0.00 0.00 0.00 54 1208.4
20260505174339 16 101 4.8 8.0 0.00 0.00 0.00 54 1208.4
20260505173839 16 90 3.2 3.2 0.00 0.00 0.00 54 1208.4
20260505173339 16 112 3.2 4.8 0.00 0.00 0.00 54 1208.4
20260505172839 16 112 3.2 4.8 0.00 0.00 0.00 54 1208.4
20260505172148 16 79 4.8 4.8 0.00 0.00 0.00 54 1207.4
20260505171648 16 112 4.8 4.8 0.00 0.00 0.00 54 1207.4
20260505171148 16 124 3.2 3.2 0.00 0.00 0.00 54 1207.4
20260505170648 16 158 3.2 4.8 0.00 0.00 0.00 54 1207.4
20260505165956 16 68 3.2 4.8 0.00 0.00 0.00 54 1207.4